This is the latest recevied weather packets stored in our database for station/object SV1RVP-13. If no packets are shown the sender has not sent any weather packets the latest 10 day(s).
| Time | Temp. | Humidity | Pressure | Rain* | Wind** | Luminosity | Snow |
|---|---|---|---|---|---|---|---|
| 1778224719 | 20° C | 55% | 1019 hPa | 0 mm | - | - | - |
| 1778224108 | 20° C | 55% | 1019.2 hPa | 0 mm | - | - | - |
| 1778223524 | 20° C | 53% | 1019.4 hPa | 0 mm | - | - | - |
| 1778222909 | 20° C | 52% | 1019.5 hPa | 0 mm | - | - | - |
| 1778222335 | 20° C | 51% | 1019.3 hPa | 0 mm | - | - | - |
| 1778221722 | 20° C | 50% | 1019 hPa | 0 mm | - | - | - |
| 1778221123 | 20° C | 49% | 1019 hPa | 0 mm | - | - | - |
| 1778220517 | 20.56° C | 48% | 1018.6 hPa | 0 mm | - | - | - |
| 1778219918 | 20.56° C | 46% | 1018.4 hPa | 0 mm | - | - | - |
| 1778219320 | 20° C | 46% | 1017.8 hPa | 0 mm | - | - | - |
| 1778218711 | 20° C | 47% | 1017.5 hPa | 0 mm | - | - | - |
| 1778218111 | 20° C | 47% | 1017.4 hPa | 0 mm | - | - | - |
| 1778217531 | 20° C | 48% | 1017.2 hPa | 0 mm | - | - | - |
| 1778216924 | 20° C | 50% | 1017.1 hPa | 0 mm | - | - | - |
| 1778216319 | 20° C | 51% | 1017 hPa | 0 mm | - | - | - |
| 1778215722 | 19.44° C | 54% | 1017 hPa | 0 mm | - | - | - |
| 1778215114 | 19.44° C | 59% | 1017 hPa | 0 mm | - | - | - |
| 1778214512 | 19.44° C | 59% | 1016.8 hPa | 0 mm | - | - | - |
| 1778213936 | 19.44° C | 60% | 1016.6 hPa | 0 mm | - | - | - |
| 1778213307 | 19.44° C | 60% | 1016.3 hPa | 0 mm | - | - | - |
| 1778212723 | 19.44° C | 60% | 1016.2 hPa | 0 mm | - | - | - |
| 1778212123 | 19.44° C | 60% | 1015.9 hPa | 0 mm | - | - | - |
| 1778211512 | 19.44° C | 60% | 1016 hPa | 0 mm | - | - | - |
| 1778210908 | 19.44° C | 59% | 1015.9 hPa | 0 mm | - | - | - |
| 1778210329 | 19.44° C | 60% | 1016 hPa | 0 mm | - | - | - |
* Rain since midnight (hover to see other rain measurements)
** Current wind speed in m/s (hover to see current wind gust speed)